Location: Couloutre
(47.4081°N, 3.2259°E)
Time: 04:29:57
(UTC+00:00)

ATLAS 3B R/B - Pass Details

Date: 27 February 2020
Orbit: 1029 x 1166 km, 63.8° (Epoch: 12 March)

Event Time Altitude Azimuth Distance (km) Brightness Sun altitude
Rises 19:24:53 0° 317° (NW) 3,794 6.4 -20.4°
Reaches altitude 10° 19:27:49 10° 328° (NNW) 2,848 5.5 -20.9°
Maximum altitude 19:33:46 32° 30° (NNE) 1,718 3.6 -21.9°
Enters shadow 19:35:30 29° 57° (ENE) 1,850 3.6 -22.2°
